Torna al catalogo

STARLINK-34202

AttivoComunicazioniVLEO
NORAD 64174·PAYLOAD·🇺🇸 United States

Lanciato May 28, 2025 da Cape Canaveral Space Force Station

Loading…

Prossimi Passaggi (prossime 24 ore)

TLE

AggiornatoSource: CelesTrak SupGP

Epoca: Sep 14, 2026, 20:50 UTC

1 64174C 25113E   26257.86854167  .00014824  00000+0  43809-3 0  2573
2 64174  53.1576 291.9390 0001086  91.6339 352.6859 15.34374793    15

Traccia STARLINK-34202 in tempo reale con AllMySat

Download on the App Store